Weather History for KAGC - March, 2014

Change the Weather History Date:

Monday, March 24, 2014

  Actual Average Record
Temperature  
Mean Temperature 25 °F -  
Max Temperature 35 °F 52 °F 73 °F (1988)
Min Temperature 16 °F 32 °F 16 °F (2014)
Degree Days  
Heating Degree Days 40    
Moisture  
Dew Point 6 °F    
Average Humidity 46    
Maximum Humidity 68    
Minimum Humidity 31    
Precipitation  
Precipitation 0.00 in - - ()
Sea Level Pressure  
Sea Level Pressure 30.26 in    
Wind  
Wind Speed 6 mph (NW)    
Max Wind Speed 12 mph    
Max Gust Speed 20 mph    
Visibility 10 miles    
Events      
Averages and records for this station are not official NWS values.
T = Trace of Precipitation, MM = Missing Value Source: NWS Daily Summary

Daily Weather History Graph

Daily Weather History Graph

Search for Another Location

Airport or City:

Trip Planner

Search our weather history database for the weather conditions in past years. The results will help you decide how hot, cold, wet, or windy it might be!

Date:

Astronomy

Mar. 24, 2014 Rise Set
Actual Time 7:16 AM EDT 7:35 PM EDT
Civil Twilight 6:49 AM EDT 8:03 PM EDT
Nautical Twilight 6:17 AM EDT 8:35 PM EDT
Astronomical Twilight 5:44 AM EDT 9:07 PM EDT
Moon 2:46 AM EDT (3/24) 12:58 PM EDT (3/24)
Length of Visible Light 13h 13m
Length of Day
12h 19m
Last Quarter, 43% of the Moon is Illuminated
Mar 24
Last Quarter
Mar 30
New
Apr 7
First Quarter
Apr 15
Full
Apr 22
Last Quarter

Hourly Weather History & Observations

Time (EDT) Temp. Windchill Dew Point Humidity Pressure Visibility Wind Dir Wind Speed Gust Speed Precip Events Conditions
12:53 AM 19.0 °F 11.1 °F 7.0 °F 59% 30.34 in 10.0 mi NW 5.8 mph - N/A   Clear
1:53 AM 19.0 °F 11.1 °F 7.0 °F 59% 30.34 in 10.0 mi NW 5.8 mph - N/A   Partly Cloudy
2:53 AM 18.0 °F 11.1 °F 7.0 °F 62% 30.33 in 10.0 mi NNW 4.6 mph - N/A   Clear
3:53 AM 17.1 °F 6.6 °F 8.1 °F 68% 30.32 in 10.0 mi NNW 8.1 mph - N/A   Clear
4:53 AM 17.1 °F 6.6 °F 6.1 °F 62% 30.32 in 10.0 mi North 8.1 mph - N/A   Clear
5:53 AM 16.0 °F 7.4 °F 5.0 °F 62% 30.32 in 10.0 mi NNW 5.8 mph - N/A   Clear
6:53 AM 16.0 °F 8.8 °F 5.0 °F 62% 30.33 in 10.0 mi North 4.6 mph - N/A   Clear
7:53 AM 18.0 °F - 6.1 °F 60% 30.35 in 10.0 mi Calm Calm - N/A   Clear
8:53 AM 19.9 °F 14.9 °F 3.0 °F 48% 30.35 in 10.0 mi NE 3.5 mph - N/A   Clear
9:53 AM 23.0 °F 18.4 °F 3.0 °F 42% 30.34 in 10.0 mi Variable 3.5 mph - N/A   Mostly Cloudy
10:53 AM 23.0 °F 18.4 °F 1.9 °F 40% 30.34 in 10.0 mi Variable 3.5 mph - N/A   Partly Cloudy
11:53 AM 25.0 °F 16.3 °F 3.9 °F 41% 30.32 in 10.0 mi NNW 8.1 mph - N/A   Mostly Cloudy
12:53 PM 26.1 °F 18.4 °F 3.9 °F 39% 30.30 in 10.0 mi West 6.9 mph - N/A   Mostly Cloudy
1:53 PM 30.0 °F 23.2 °F 5.0 °F 35% 30.27 in 10.0 mi Variable 6.9 mph - N/A   Partly Cloudy
2:53 PM 30.9 °F 21.7 °F 5.0 °F 33% 30.23 in 10.0 mi SW 11.5 mph - N/A   Mostly Cloudy
3:53 PM 32.0 °F 27.5 °F 5.0 °F 32% 30.22 in 10.0 mi NNW 4.6 mph - N/A   Mostly Cloudy
4:53 PM 33.1 °F 26.9 °F 6.1 °F 32% 30.19 in 10.0 mi NW 6.9 mph 19.6 mph N/A   Scattered Clouds
5:53 PM 34.0 °F 26.6 °F 6.1 °F 31% 30.17 in 10.0 mi West 9.2 mph 18.4 mph N/A   Scattered Clouds
6:53 PM 32.0 °F 24.8 °F 6.1 °F 34% 30.16 in 10.0 mi WSW 8.1 mph - N/A   Partly Cloudy
7:53 PM 30.9 °F 26.2 °F 6.1 °F 35% 30.16 in 10.0 mi West 4.6 mph - N/A   Clear
8:53 PM 30.9 °F 27.5 °F 7.0 °F 37% 30.15 in 10.0 mi WSW 3.5 mph - N/A   Clear
9:53 PM 30.0 °F 26.5 °F 7.0 °F 38% 30.14 in 10.0 mi SW 3.5 mph - N/A   Clear
10:53 PM 28.9 °F 22.8 °F 8.1 °F 41% 30.14 in 10.0 mi NW 5.8 mph - N/A   Clear
11:53 PM 27.0 °F 20.5 °F 10.0 °F 49% 30.13 in 10.0 mi NNW 5.8 mph - N/A   Clear